Location: Kosice
(48.7167°N, 21.2500°E)
Time: 14:26:34
(UTC+02:00)

Daily predictions for brighter satellites

Satellite Brightness Start Highest point End
(mag) Time Altitude Azimuth Time Altitude Azimuth Time Altitude Azimuth
Meteor 2-21 Rocket 4.4 17:57:26 10° S 18:03:30 78° E 18:09:33 10° NNE
Cosmos 1461 3.8 18:03:36 10° WSW 18:07:34 49° NW 18:11:47 10° NNE
Cosmos 2322 3.7 18:02:33 10° NNW 18:08:20 80° ENE 18:14:03 10° SSE
SL-08 R/B 4.5 18:04:10 10° S 18:10:13 65° E 18:16:17 10° NNE
GP-B 3.1 18:12:11 10° N 18:16:37 65° E 18:21:01 10° S
Meteor 1-16 Rocket 4.3 18:12:16 10° SSW 18:17:34 78° WNW 18:23:01 10° N
SKYMED 2 4.1 18:14:01 10° NNE 18:18:05 38° E 18:22:08 10° SSE
Aureole 2 4.1 18:15:26 10° NNW 18:18:29 75° ENE 18:21:51 10° SSE
Cosmos 2219 Rocket 2.7 18:13:27 10° NNW 18:18:43 40° NE 18:23:58 10° ESE
Cosmos 1743 Rocket 3.7 18:15:06 10° NNW 18:19:30 80° W 18:23:54 10° S
USA 116 4.5 18:15:07 10° NNE 18:20:18 75° ESE 18:25:41 10° S
Meteor 2-1 Rocket 4.4 18:15:09 10° S 18:20:49 56° E 18:26:37 10° NNE
Cosmos 44 4.2 18:17:48 10° SSE 18:21:17 24° ESE 18:24:46 10° ENE
CZ-4 R/B 2.0 18:17:51 10° S 18:22:01 64° WSW 18:26:08 10° NNW
Cosmos 2221 3.2 18:18:46 10° SSE 18:22:37 32° E 18:26:30 10° NNE
Aureole 2 Rocket 3.5 18:20:25 10° N 18:23:56 32° ENE 18:27:35 10° SE
CZ-4C R/B 3.2 18:19:47 10° SSE 18:23:58 24° ESE 18:28:34 10° ENE
NOSS 0 Rocket 4.4 18:18:42 10° NNW 18:24:29 39° NE 18:30:12 10° ESE
Cosmos 921 Rocket 3.0 18:20:05 10° NNW 18:24:35 86° ENE 18:28:58 10° SSE
Cosmos 2084 3.8 18:21:48 10° NNW 18:25:21 36° NE 18:28:37 12° ESE
CZ-4 R/B 4.5 18:22:02 10° SSE 18:26:10 89° W 18:30:21 10° NNW
MTI 3.7 18:23:25 10° NNE 18:26:38 68° ESE 18:29:49 10° S
SMAP 4.4 18:27:05 10° S 18:31:32 45° W 18:36:01 10° NNW
Cosmos 1842 Rocket 3.6 18:27:50 10° S 18:32:18 86° E 18:36:46 10° N
GRACE-2 3.8 18:29:58 10° SSE 18:32:27 46° E 18:34:57 10° N
SL-8 R/B 4.0 18:28:42 10° SW 18:33:24 56° SSE 18:37:15 15° E
NOAA 12 4.2 18:28:40 10° SSE 18:33:53 59° ENE 18:39:07 10° N
METEOR-M 4.1 18:29:23 10° SSE 18:34:44 85° ENE 18:40:07 10° NNW
Cosmos 1420 Rocket 4.1 18:29:57 10° NNW 18:35:20 88° WSW 18:40:37 10° SSE
Cosmos 158 Rocket 4.3 18:31:11 10° S 18:35:59 44° ESE 18:40:57 10° NE
EO 1 Del DPAF 3.2 18:32:10 10° NNE 18:36:02 68° ESE 18:39:51 10° S
APEX 3.5 18:34:16 10° S 18:36:51 26° ESE 18:38:02 19° ENE
GRACE-1 3.6 18:34:28 10° SSE 18:37:00 58° E 18:39:33 10° N
Cosmos 2366 rocket 4.2 18:33:27 10° SSW 18:39:39 75° W 18:45:51 10° N
ERS-2 3.6 18:36:10 10° S 18:39:41 41° W 18:43:13 10° NNW
Cosmos 1500 Rocket 4.1 18:35:48 10° NNW 18:40:06 64° W 18:44:23 10° S
MONITOR-E 4.2 18:38:07 10° S 18:41:11 82° W 18:44:17 10° NNW
Envisat 4.4 18:40:43 16° ENE 18:42:14 18° ENE 18:45:32 10° NNE
Landsat 4 4.4 18:40:25 10° N 18:44:04 55° WNW 18:47:43 10° SSW
Cosmos 1315 Rocket 3.0 18:40:06 10° NNW 18:44:11 77° W 18:48:17 10° S
Cosmos 2333 4.2 18:38:26 10° NNW 18:44:11 83° ENE 18:49:57 10° SSE
BREEZE M DEB (TANK) 2.1 18:38:34 10° W 18:44:29 87° SSW 18:46:06 22° ESE
Cosmos 1726 2.7 18:46:18 10° SSE 18:49:39 34° E 18:53:02 10° NNE
Abrixas 4.4 18:49:12 10° SSE 18:49:14 10° SSE 18:49:14 10° SSE
Thor Agena Rocket 4.1 18:45:35 10° NNE 18:50:12 33° E 18:54:45 10° SSE
Abrixas rocket 2.1 18:48:08 10° W 18:51:27 87° S 18:53:04 27° E
Cosmos 44 Rocket 3.5 18:47:50 10° SSW 18:52:18 45° ESE 18:55:46 16° NE
Cosmos 2237 Rocket 2.7 18:48:38 10° NNW 18:54:02 41° NE 18:57:54 18° ESE
Gbstr 26 Del rocket 3.9 18:50:09 10° WNW 18:54:56 64° SSW 19:00:17 13° SE
Meteor 1-28 Rocket 4.4 18:51:24 10° N 18:55:04 46° WNW 18:58:40 10° SW
Resurs 01 Rocket 2.8 19:03:24 23° ENE 19:03:29 23° ENE 19:07:00 10° N
Cosmos 1331 Rocket 4.2 18:59:21 10° NNW 19:04:27 49° ENE 19:07:59 19° SE
Cosmos 2227 Rocket 3.5 19:01:23 10° SSE 19:04:19 20° ESE 19:04:19 20° ESE
SL-16 R/B 3.3 19:00:47 10° NNW 19:05:33 26° NE 19:07:11 23° ENE
Sich 1 3.1 19:01:33 10° N 19:05:52 55° ENE 19:10:12 10° SSE
COSMO-SKYMED 1 2.8 19:01:54 10° N 19:06:15 72° WNW 19:10:34 10° SSW
Lacrosse 5 rocket 2.9 19:05:20 10° WNW 19:09:06 27° N 19:11:10 18° NE
SJ-6B 2.9 19:08:06 29° ESE 19:09:34 44° ENE 19:13:08 10° N
Cosmos 2360 Rocket 4.3 19:10:14 10° NW 19:14:59 28° WSW 19:19:42 10° SSW
USA 234 3.8 19:11:24 22° ENE 19:15:22 46° N 19:21:34 10° WNW
Cosmos 1821 Rocket 3.9 19:09:33 10° S 19:15:42 74° E 19:21:59 10° NNE
FREGAT/IRIS 2.4 19:14:49 39° SSE 19:15:47 75° ENE 19:18:47 10° N
Cosmos 1934 Rocket 4.0 19:10:07 10° S 19:16:20 59° E 19:22:34 10° NNE
Meteor 2-3 Rocket 4.3 19:11:37 10° N 19:16:55 35° ENE 19:18:31 30° E
Cosmos 1908 4.0 19:14:05 10° SSW 19:17:55 53° WNW 19:21:45 10° N
Cosmos 1980 3.7 19:12:38 10° NNW 19:18:16 62° ENE 19:21:41 24° SE
Cosmos 1805 Rocket 3.7 19:14:39 10° NNW 19:19:02 75° W 19:23:26 10° S
DMSP B5D1-3 4.5 19:16:25 10° NNE 19:21:35 88° WNW 19:26:44 10° SSW
Cosmos 2239 Rocket 4.4 19:15:45 10° S 19:21:52 82° E 19:28:04 10° N
ATLAS 5 CENTAUR R/B 4.0 19:20:14 10° NNW 19:24:02 19° N 19:26:24 15° NE
COSMOS 2428 3.6 19:19:25 10° NW 19:24:54 49° WSW 19:30:21 10° S
Cosmos 1269 Rocket 3.9 19:19:40 10° SSW 19:24:57 82° ESE 19:30:16 10° NNE
H-2A R/B 2.7 19:23:03 11° SSE 19:26:47 89° ESE 19:30:45 10° NNW
Cosmos 2333 Rocket 2.2 19:22:18 10° NNW 19:28:04 83° WSW 19:33:15 13° SSE
Cosmos 1666 Rocket 3.4 19:23:53 10° N 19:28:16 90° E 19:32:35 10° S
ALOS 3.2 19:25:33 10° S 19:30:03 48° W 19:34:36 10° NNW
Cosmos 1302 Rocket 4.2 19:27:39 10° NNW 19:32:44 49° ENE 19:33:46 43° E
HJ-1C 3.3 19:33:55 82° ENE 19:33:55 82° ENE 19:37:19 10° N
Cosmos 1633 Rocket 2.9 19:29:39 10° N 19:34:07 86° E 19:37:29 17° S
Cosmos 2219 3.1 19:28:23 10° SSW 19:34:08 85° ESE 19:39:55 10° NNE
Cosmos 1933 Rocket 4.3 19:31:56 10° N 19:35:02 35° NE 19:35:02 35° NE
Cosmos 2123 Rocket 4.0 19:35:32 10° N 19:41:48 86° W 19:48:05 10° S
Cosmos 2297 Rocket 3.8 19:37:44 10° SSE 19:39:18 18° SSE 19:39:18 18° SSE
Cosmos 1300 2.7 19:41:34 10° SSW 19:45:23 80° W 19:49:14 10° N
Spot 2 Rocket 3.6 19:45:36 51° ENE 19:45:39 51° ENE 19:50:34 10° N
Cosmos 1892 4.4 19:43:10 10° N 19:44:42 22° N 19:44:42 22° N
CSL-04 DEB 4.4 19:46:31 45° S 19:47:43 77° WSW 19:51:45 10° NNW
Cosmos 2098 Rocket 4.2 19:43:28 10° SSW 19:48:16 58° WNW 19:54:23 10° N
Meteor 2-2 Rocket 4.1 19:42:48 10° S 19:48:26 69° E 19:54:03 10° NNE
Cosmos 1605 Rocket 3.8 19:44:03 10° S 19:50:06 71° E 19:56:11 10° NNE
MOS 1-B Rocket 3.8 19:47:31 28° SSE 19:50:44 78° ENE 19:57:06 10° NNW
Cosmos 494 Rocket 4.1 19:45:51 10° S 19:50:07 52° SE 19:50:07 52° SE
CZ-2D R/B 3.7 19:51:55 51° N 19:51:55 51° N 19:54:56 10° N
Cosmos 1110 Rocket 4.3 19:46:32 10° NNW 19:51:49 66° WSW 19:55:18 21° S
USA 32 3.9 19:47:48 10° N 19:53:04 73° E 19:54:17 52° SSE
Cosmos 967 Rocket 4.4 19:46:47 10° NW 19:53:17 84° NE 19:55:31 44° SE
Cosmos 1153 Rocket 4.5 19:47:53 10° SSE 19:53:49 53° E 19:59:51 10° NNE
Meteor 2-10 3.9 19:49:04 10° SSW 19:54:07 81° WNW 19:59:20 10° N
H-2A R/B 4.4 20:02:28 11° NNE 20:02:28 11° NNE 20:03:00 10° NNE
Cosmos 44 3.7 19:57:59 10° WSW 20:02:12 50° NW 20:03:15 40° N
Cosmos 2219 Rocket 3.4 19:57:30 10° NW 20:02:41 40° WSW 20:07:51 10° S
CZ-4C R/B 2.4 20:06:26 10° SW 20:11:47 70° NW 20:14:12 37° NNE
SL-8 R/B 3.9 20:11:01 10° W 20:15:13 67° W 20:15:13 67° W
USA 267 4.1 20:22:48 33° S 20:22:48 33° S 20:26:45 10° SSW
Envisat 3.0 20:20:56 77° WNW 20:20:56 77° WNW 20:25:46 10° NNW
Cosmos 1470 Rocket 4.5 20:22:09 10° NNW 20:25:52 48° WNW 20:25:52 48° WNW
Cosmos 2237 Rocket 3.4 20:32:49 10° NW 20:38:06 39° WSW 20:39:47 32° SW
Resurs 01 Rocket 3.1 20:40:59 35° WNW 20:40:59 35° WNW 20:43:59 10° NNW
Cosmos 2227 Rocket 3.5 20:43:23 10° SW 20:46:16 31° SW 20:46:16 31° SW
Lacrosse 5 rocket 3.8 20:45:16 10° NW 20:46:51 20° NW 20:46:51 20° NW
SL-16 R/B 2.8 20:44:32 10° NNW 20:49:04 55° NW 20:49:04 55° NW
USA 234 3.4 20:58:45 70° NNW 20:58:45 70° NNW 21:04:35 10° NW
ATLAS 5 CENTAUR R/B 3.8 21:05:01 10° NNW 21:07:56 27° N 21:07:56 27° N
CZ-4C R/B 4.4 21:56:38 10° WNW 21:59:25 22° NW 21:59:25 22° NW
